Location: ????????
(47.9870°N, 38.8736°E)
Time: 17:40:31
(UTC+00:00)

Daily predictions for brighter satellites

Satellite Brightness Start Highest point End
(mag) Time Altitude Azimuth Time Altitude Azimuth Time Altitude Azimuth
Cosmos 1535 Rocket 4.5 14:41:03 10° N 14:47:14 68° E 14:53:18 10° SSE
Meteor 2-10 4.1 14:42:53 10° S 14:47:45 51° E 14:52:38 10° NNE
Unknown 4.4 14:47:09 10° WNW 14:51:07 41° N 14:55:03 10° ENE
Cosmos 2278 Rocket 2.5 14:46:18 10° S 14:51:44 50° ESE 14:57:13 10° NE
Meteor 1-16 Rocket 4.1 14:46:47 10° S 14:52:14 72° E 14:57:35 10° NNE
Unknown 4.4 14:50:30 10° WNW 14:54:26 41° N 14:58:23 10° ENE
Cosmos 2228 3.3 14:50:48 10° SSW 14:55:09 77° W 14:59:30 10° N
Unknown 4.4 14:52:07 10° WNW 14:56:04 40° N 15:00:01 10° ENE
ASTEX 1 3.7 14:51:57 10° NNE 14:56:44 45° E 15:01:31 10° SSE
Unknown 4.4 14:53:50 10° WNW 14:57:47 40° N 15:01:43 10° ENE
Unknown 4.4 14:55:27 10° WNW 14:59:23 40° N 15:03:20 10° ENE
CSL-04 Rocket 4.2 14:54:46 10° SE 14:59:47 37° ENE 15:04:46 10° N
Lacrosse 5 1.9 14:54:51 10° NW 14:59:56 83° NE 15:05:01 10° SE
Cosmos 1908 3.5 14:57:00 10° SSE 15:00:44 47° E 15:04:30 10° NNE
Cosmos 921 Rocket 3.8 14:56:33 10° SSW 15:00:58 59° WNW 15:05:21 10° NNE
Gbstr 26 Del rocket 4.2 14:59:19 10° WNW 15:05:01 72° SSW 15:12:04 10° SE
Unknown 4.4 15:02:12 10° WNW 15:06:08 40° N 15:09:55 11° ENE
SKYMED 2 4.1 15:02:15 10° NNE 15:06:18 36° E 15:10:18 10° SSE
YAOGAN 1 3.2 15:02:36 10° SE 15:06:29 33° ENE 15:10:23 10° N
Unknown 4.4 15:03:53 10° WNW 15:07:49 40° N 15:11:31 11° ENE
YAOGAN 6 3.1 15:05:18 10° SE 15:08:41 37° ENE 15:12:02 10° N
Cosmos 1777 Rocket 4.2 15:04:15 10° NNW 15:09:29 79° WSW 15:14:40 10° SSE
Unknown 4.4 15:05:33 10° WNW 15:09:29 40° N 15:13:07 12° ENE
Meteor 1-11 4.3 15:04:15 10° N 15:10:04 79° ENE 15:15:53 10° SSE
FengYun 1-2 T 4.3 15:05:07 10° SE 15:10:36 57° ENE 15:16:04 10° N
Unknown 4.4 15:07:11 10° WNW 15:11:08 40° N 15:14:41 12° ENE
Cosmos 1726 Rocket 4.4 15:07:59 10° SSW 15:12:16 55° WNW 15:16:33 10° N
Unknown 4.4 15:08:53 10° WNW 15:12:49 40° N 15:16:18 13° ENE
ATLAS 3B R/B 3.8 15:08:07 10° SSE 15:13:00 22° ESE 15:17:50 10° ENE
CZ-4 R/B 1.7 15:10:43 10° SE 15:14:47 50° ENE 15:18:53 10° N
Unknown 3.9 15:12:06 10° WNW 15:15:50 48° NNE 15:18:52 15° E
Unknown 4.4 15:12:12 10° WNW 15:16:09 40° N 15:19:29 14° ENE
Unknown 3.7 15:13:02 10° WNW 15:16:24 56° SSW 15:19:44 10° SE
Cosmos 1461 3.4 15:13:34 10° NW 15:17:38 63° SW 15:21:48 10° SSE
Starlink (trailer) 4.4 15:13:53 10° WNW 15:17:49 40° N 15:21:04 14° ENE
CENTAUR R/B 3.5 15:14:14 10° SSE 15:18:51 24° ESE 15:23:55 10° ENE
Cosmos 1833 Rocket 2.7 15:13:35 10° NNW 15:19:14 87° WSW 15:24:52 10° SSE
Unknown 4.4 15:15:35 10° WNW 15:19:31 40° N 15:22:41 15° ENE
Unknown 4.4 15:17:17 10° WNW 15:21:14 41° N 15:24:20 15° ENE
ATLAS CENTAUR R/B 3.7 15:19:17 10° N 15:21:19 13° NNE 15:23:17 10° NE
USA 116 4.3 15:19:19 10° NE 15:22:13 28° E 15:25:20 10° SSE
Cosmos 44 4.1 15:20:44 10° S 15:25:00 30° ESE 15:28:21 14° ENE
Unknown 4.4 15:22:16 10° WNW 15:26:13 41° N 15:29:06 17° ENE
Cosmos-2242 4.4 15:23:53 10° SE 15:26:41 17° E 15:29:31 10° NE
Cosmos 1892 4.4 15:25:29 10° NNE 15:27:33 15° ENE 15:27:33 15° ENE
Unknown 4.4 15:23:54 10° WNW 15:27:51 41° N 15:30:39 17° ENE
Unknown 4.4 15:25:35 10° WNW 15:29:32 41° N 15:32:15 18° ENE
Unknown 4.4 15:27:12 10° WNW 15:31:10 42° N 15:33:52 19° ENE
FALCON 9 DEB 3.9 15:29:05 10° WNW 15:32:28 50° SW 15:35:46 10° SE
Unknown 4.3 15:28:54 10° WNW 15:32:52 42° N 15:35:26 19° ENE
Cosmos 1153 Rocket 4.4 15:26:52 10° N 15:32:59 65° ENE 15:39:06 10° SSE
Unknown 4.3 15:30:41 10° WNW 15:34:39 42° N 15:37:08 20° ENE
Cosmos 2084 Rocket 3.5 15:31:12 10° NW 15:35:40 90° SW 15:40:03 10° SE
Unknown 4.3 15:33:58 10° WNW 15:37:55 42° N 15:40:16 21° ENE
Unknown 4.3 15:34:01 10° WNW 15:37:59 42° N 15:40:20 21° ENE
SL-27 R/B 4.3 15:36:28 10° NNE 15:37:52 15° NE 15:37:52 15° NE
Unknown 4.3 15:35:36 10° WNW 15:39:35 42° N 15:41:51 22° ENE
SJ 16-02 2.3 15:37:07 10° N 15:40:55 28° ENE 15:42:23 23° E
Unknown 4.3 15:38:51 10° WNW 15:42:49 43° N 15:44:57 23° ENE
Unknown 3.7 15:40:49 10° WNW 15:44:41 56° NNE 15:46:30 28° E
COBE Rocket 4.3 15:40:05 10° N 15:45:14 71° WNW 15:50:13 10° SSW
Envisat 3.5 15:40:12 10° S 15:45:14 62° W 15:50:17 10° NNW
Unknown 4.3 15:42:16 10° WNW 15:46:15 43° N 15:48:14 25° ENE
Cosmos 1300 2.7 15:43:18 10° S 15:47:01 52° E 15:50:45 10° NNE
Unknown 4.2 15:43:56 10° WNW 15:47:55 44° N 15:49:49 26° ENE
Unknown 4.2 15:45:37 10° WNW 15:49:36 44° N 15:51:26 27° ENE
CSL-04 Debris 4.2 15:45:10 10° SSE 15:50:38 90° SE 15:56:11 10° NNW
USA 238 DEB 3.6 15:44:33 10° SW 15:51:15 85° SE 15:58:15 10° NE
Unknown 4.2 15:47:18 10° WNW 15:51:18 44° N 15:53:03 28° ENE
USA 238 3.6 15:44:39 10° SW 15:51:22 84° SE 15:58:20 10° NE
Unknown 4.2 15:48:20 10° WNW 15:51:41 42° SW 15:54:05 17° SSE
Abrixas rocket 1.9 15:48:51 10° W 15:51:55 82° N 15:52:46 45° ENE
Cosmos 2082 Rocket 2.5 15:48:39 10° NNW 15:54:20 69° WSW 15:59:58 10° SSE
COSMO-SKYMED 1 2.8 15:50:07 10° N 15:54:28 74° WNW 15:58:48 10° SSW
Unknown 4.2 15:50:38 10° WNW 15:54:38 45° N 15:56:14 30° ENE
Cosmos 1898 Rocket 3.6 15:49:35 10° NNW 15:54:48 57° ENE 15:59:11 15° SE
Unknown 4.2 15:52:21 10° WNW 15:56:22 46° N 15:57:53 31° ENE
Unknown 4.2 15:53:56 10° WNW 15:57:56 46° N 15:59:24 32° ENE
Unknown 4.2 15:55:32 10° WNW 15:59:33 46° NNE 16:00:56 33° ENE
H-2A R/B 3.2 16:00:04 24° ENE 16:00:15 24° ENE 16:04:31 10° N
Cosmos 1943 Rocket 4.1 15:57:00 10° SE 15:57:19 11° SE 15:57:19 11° SE
CZ-2D R/B 3.1 15:57:23 10° SSE 16:01:13 69° ENE 16:05:06 10° N
Unknown 4.1 15:57:16 10° WNW 16:01:18 47° NNE 16:02:37 34° ENE
Cosmos 1459 Rocket 4.0 15:55:06 10° N 16:01:18 63° ENE 16:07:34 10° SSE
Unknown 4.2 15:58:46 10° WNW 16:02:47 46° NNE 16:04:02 34° ENE
Cosmos 2058 2.8 15:59:47 10° N 16:04:01 74° E 16:08:12 10° SSE
Unknown 4.1 16:02:03 10° WNW 16:06:05 47° NNE 16:07:11 37° NE
Unknown 4.1 16:03:44 10° WNW 16:07:46 47° NNE 16:08:48 38° NE
Unknown 4.0 16:05:36 10° WNW 16:09:39 49° NNE 16:10:35 40° NE
Cosmos 1766 Rocket 3.9 16:05:35 10° N 16:09:43 41° ENE 16:09:49 41° E
Cosmos 1076 Rocket 3.7 16:05:25 10° NNW 16:09:47 72° W 16:14:05 10° S
Unknown 3.8 16:06:00 10° WNW 16:09:59 55° NNE 16:10:50 45° ENE
IRS-1A Rocket 4.2 16:04:42 10° SSE 16:10:06 62° ENE 16:15:34 10° N
Unknown 4.1 16:07:07 10° WNW 16:11:09 48° NNE 16:12:02 40° NE
Unknown 3.4 16:07:30 10° WNW 16:11:14 73° SSW 16:12:07 48° SE
Unknown 4.0 16:08:45 10° WNW 16:12:48 49° NNE 16:13:36 42° NE
NOSS 3-2 (A) 3.4 16:07:18 10° SW 16:13:08 85° NW 16:19:08 13° NE
BREEZE-M DEB (TANK) 4.4 16:09:28 10° WNW 16:14:13 64° SSW 16:29:12 11° SE
Cosmos 2061 Rocket 4.0 16:08:20 10° N 16:14:30 59° ENE 16:20:35 10° SSE
Cosmos 1939 Rocket 2.8 16:10:48 10° SSE 16:14:49 87° E 16:18:57 10° NNW
DMSP B5D1-3 4.4 16:10:54 10° NNE 16:16:03 76° ESE 16:21:12 10° S
In-Cosmos 22 Rocket 4.0 16:10:38 10° N 16:16:05 80° ENE 16:21:39 10° SSE
Unknown 4.0 16:12:05 10° WNW 16:16:08 50° NNE 16:16:48 44° NE
ATLAS 5 CENTAUR R/B 4.1 16:13:57 10° NW 16:16:56 16° N 16:20:09 10° NNE
Unknown 4.0 16:13:44 10° WNW 16:17:47 50° NNE 16:18:23 46° NE
Unknown 3.9 16:15:23 10° WNW 16:19:26 51° NNE 16:19:58 47° NE
Unknown 3.9 16:17:06 10° WNW 16:21:09 51° NNE 16:21:36 49° NE
Unknown 3.8 16:18:27 10° WNW 16:22:30 55° NNE 16:22:50 53° NE
Unknown 3.9 16:20:26 10° WNW 16:24:30 53° NNE 16:24:48 51° NE
ADEOS Rocket 3.8 16:18:22 10° NNE 16:25:16 36° E 16:26:12 35° ESE
Unknown 3.8 16:21:19 10° WNW 16:25:24 54° NNE 16:25:40 53° NNE
Cosmos 2151 2.9 16:21:28 10° N 16:25:46 63° E 16:25:51 63° E
Unknown 3.8 16:22:08 10° WNW 16:26:13 56° NNE 16:26:27 55° NNE
Okean 3 Rocket 3.5 16:21:54 10° N 16:26:27 80° E 16:28:25 33° SSE
Ariane Rocket 3.0 16:22:43 10° SSE 16:27:49 86° WSW 16:32:58 10° NNW
Unknown 3.8 16:23:58 10° WNW 16:28:04 57° NNE 16:28:14 56° NNE
Meteor 2-1 Rocket 4.1 16:23:08 10° S 16:28:40 86° E 16:34:19 10° NNE
Unknown 3.8 16:27:06 10° WNW 16:31:12 56° NNE 16:31:13 56° NNE
Cosmos 468 Rocket 3.8 16:26:04 10° SSW 16:31:19 77° ESE 16:35:27 17° NNE
Cosmos 2173 Rocket 4.0 16:25:47 10° N 16:32:03 80° W 16:38:11 10° S
Unknown 3.9 16:30:26 10° WNW 16:34:24 57° N 16:34:24 57° N
Resurs 01 Rocket 4.1 16:38:16 11° NNE 16:38:16 11° NNE 16:38:31 10° NNE
Cosmos 2278 Rocket 3.8 16:30:57 10° WSW 16:36:03 33° NW 16:41:10 10° NNE
Unknown 3.9 16:32:02 10° WNW 16:35:57 57° N 16:35:57 57° N
Unknown 3.9 16:33:45 10° WNW 16:37:35 57° N 16:37:35 57° N
Cosmos 1864 Rocket 4.4 16:32:12 10° N 16:38:21 67° ENE 16:40:53 37° SSE
BREEZE M DEB (TANK) 4.4 16:35:58 10° W 16:38:42 26° SSW 16:41:30 19° SSE
Unknown 3.9 16:35:21 10° WNW 16:39:07 57° N 16:39:07 57° N
NOSS 3-2 (C) 3.4 16:34:21 10° SW 16:40:13 84° NW 16:44:15 25° NE
Cosmos 990 Rocket 4.2 16:35:27 10° NNW 16:40:38 67° WSW 16:43:40 25° S
Cosmos 2297 3.8 16:36:07 10° SSW 16:41:50 76° WNW 16:47:20 11° NNE
Lacrosse 5 4.0 16:38:30 10° WNW 16:42:25 23° SW 16:46:20 10° S
Cosmos 1937 Rocket 3.4 16:38:15 10° NNW 16:43:25 81° WSW 16:44:59 46° S
Cosmos 2150 Rocket 4.4 16:39:29 10° NNW 16:44:12 47° NE 16:44:12 47° NE
ARGOS 3.6 16:46:19 43° NE 16:46:19 43° NE 16:50:36 10° N
Unknown 4.1 16:42:03 10° WNW 16:45:34 55° NNW 16:45:34 55° NNW
Cosmos 1802 Rocket 4.1 16:39:56 10° NNW 16:46:22 77° W 16:52:44 10° S
Cosmos 2123 Rocket 3.9 16:41:14 10° S 16:47:27 68° E 16:53:40 10° NNE
Unknown 4.1 16:43:44 10° WNW 16:47:10 54° NNW 16:47:10 54° NNW
Unknown 4.2 16:45:23 10° WNW 16:48:46 53° NNW 16:48:46 53° NNW
SJ-11-01 4.2 16:50:12 82° NNE 16:50:12 82° NNE 16:54:43 10° NNW
CZ-4 R/B 4.3 16:47:10 10° SW 16:50:04 18° W 16:53:00 10° NW
Unknown 4.2 16:47:01 10° WNW 16:50:20 52° NW 16:50:20 52° NW
Unknown 4.3 16:48:42 10° WNW 16:51:57 50° NW 16:51:57 50° NW
Cosmos 2233 Rocket 4.1 16:46:48 10° N 16:52:44 56° ENE 16:52:44 56° ENE
Cosmos 1570 Rocket 3.9 16:48:19 10° SSW 16:53:40 85° ESE 16:54:25 67° NNE
Unknown 4.4 16:52:00 10° WNW 16:55:08 48° NW 16:55:08 48° NW
Cosmos 1725 Rocket 3.9 16:50:13 10° N 16:56:33 87° E 16:59:06 39° S
SL-24 R/B 4.4 16:52:21 10° NNE 17:04:24 - SSW 16:57:47 80° NE
ATLAS CENTAUR R/B 3.2 16:57:29 10° NNW 16:59:50 25° N 16:59:50 25° N
ATLAS 3B R/B 2.5 16:56:09 10° SW 17:02:54 87° NW 17:05:11 45° NE
Cosmos 1892 4.3 17:00:10 10° NNW 17:02:35 32° NW 17:02:35 32° NW
Cosmos-2242 3.8 16:59:36 10° SSW 17:03:51 51° WNW 17:08:05 10° N
CZ-2C R/B 4.1 17:07:08 38° NNE 17:07:08 38° NNE 17:10:52 10° N
Cosmos 44 4.1 17:01:24 10° WSW 17:06:05 46° NW 17:06:48 43° NNW
Cosmos 1763 Rocket 3.6 17:00:49 10° SSW 17:06:06 72° WNW 17:07:18 52° N
CENTAUR R/B 2.6 17:02:31 10° SW 17:08:36 78° NW 17:11:09 42° NNE
Cosmos 2298 Rocket 4.4 17:09:53 10° NNW 17:14:08 58° NNW 17:14:08 58° NNW
SJ 16-02 2.8 17:15:34 10° NW 17:19:25 34° W 17:19:25 34° W
SPOT 3 Rocket 4.2 17:25:19 53° NW 17:25:19 53° NW 17:29:26 10° NNW
H-2A R/B 3.1 17:40:41 45° NW 17:40:41 45° NW 17:44:40 10° NNW
Cosmos 1943 Rocket 4.5 17:38:26 10° SW 17:38:58 13° SW 17:38:58 13° SW
ATLAS 5 CENTAUR R/B 4.4 18:00:07 10° NNW 18:01:48 15° N 18:01:48 15° N
ADEOS Rocket 4.0 18:03:36 10° N 18:11:00 55° WNW 18:13:06 42° WSW
ATLAS 3B R/B 4.4 18:48:38 10° W 18:52:29 26° NW 18:52:29 26° NW
CENTAUR R/B 4.4 18:54:45 10° W 18:58:22 26° NW 18:58:22 26° NW
ATLAS 2AS CENTAUR R/B 4.3 23:20:17 33° E 23:20:17 33° E 23:25:27 10° NE
